[[{"header":{"parameterUnit":"m.s-1","parameterCategory":1,"la1":30.2992,"la2":30.254,"lo1":-89.0895,"lo2":-89.0443,"dy":0.0025,"dx":0.0025,"nx":19,"ny":19,"refTime":"2026-04-07T03:00:00:Z","depth":0,"parameterNumber":2,"parameterNumberName":"U-component_of_WINDS"},"data":[0,0,0,-1.9419,-1.9421,-1.9508,-1.9508,-1.9624,-1.9625,0,0,0,0,0,0,0,0,0,0,0,-1.9396,-1.9396,-1.9419,-1.9421,-1.9508,-1.9508,-1.9624,-1.9625,0,0,0,0,0,0,0,0,0,0,0,-1.9395,-1.9396,-1.9397,-1.9421,-1.9508,-1.9508,-1.9624,-1.9557,0,0,0,0,0,0,0,0,0,0,-1.9471,-1.9452,-1.9396,-1.9397,-1.9422,-1.9508,-1.9509,-1.9553,-1.9561,-1.9587,0,-1.961,0,-1.9619,-1.9633,-1.9634,0,0,0,-1.942,-1.9446,-1.9467,-1.9397,-1.9423,-1.9508,-1.9468,-1.9558,-1.9566,-1.9597,-1.9611,-1.9616,-1.9621,-1.9634,-1.9635,-1.9787,-1.9788,0,0,-1.9415,-1.9413,-1.9461,-1.9473,-1.9459,-1.9466,-1.9471,-1.9563,-1.9579,-1.9612,-1.9618,-1.9623,-1.9635,-1.9636,-1.9786,-1.9787,0,0,0,-1.9402,-1.9409,-1.9428,-1.9468,-1.9483,-1.9468,-1.9475,-1.9575,-1.9581,-1.9619,-1.9625,-1.9636,-1.9637,-1.9786,-1.9787,-1.9824,0,0,0,-1.9399,-1.9402,-1.9426,-1.9426,-1.9482,-1.953,-1.9485,-1.9575,-1.9585,-1.9624,-1.9636,-1.9638,-1.9785,-1.9786,-1.9821,-1.9842,0,0,0,-1.9389,-1.9401,-1.9414,-1.9426,-1.9463,-1.9529,-1.954,-1.9577,-1.9588,-1.9634,-1.9639,-1.9784,-1.9786,-1.9818,-1.9838,-1.9882,0,0,0,-1.9378,-1.9446,-1.9415,-1.9492,-1.9462,-1.955,-1.9539,-1.9605,-1.9649,-1.9636,-1.9785,-1.9787,-1.9817,-1.9835,-1.9879,-1.9919,-1.9935,0,0,-1.9462,-1.9456,-1.9502,-1.9476,-1.9569,-1.9537,-1.9636,-1.9678,-1.9684,-1.9753,-1.9756,-1.9822,-1.9837,-1.9881,-2.0026,-2.0038,0,0,0,-1.9528,-1.9561,-1.9586,-1.9627,-1.966,-1.969,-1.9717,-1.9733,-1.9791,-1.9719,-1.9849,-1.9859,-1.9884,-1.9904,-1.9915,-1.9937,-1.9795,-1.9795,-1.9795,-1.9645,-1.9649,-1.9725,-1.9739,-1.9779,-1.9806,-1.9839,-1.9864,-1.9857,-1.9888,-1.9908,-1.9995,-2.0018,-2.0026,-2.005,-1.9929,-1.9929,-1.9929,-1.9929,-1.977,-1.9817,-1.9805,-1.9875,-1.9879,-1.9937,-1.9966,-1.9958,-2.0014,-1.998,-2.0003,-1.9967,-2.004,-2.0061,-1.9932,-1.9932,-1.9931,-1.9931,-1.9931,-1.9848,-1.9871,-1.9888,-1.9948,-1.9993,-2.0005,-2.0059,-2.006,-2.0062,-2.0085,-2.0107,-2.0106,-2.0107,-2.0095,-2.0095,-2.0095,-2.0096,-2.0096,-2.0096,-1.9923,-1.994,-1.9985,-2.0026,-2.0052,-2.0087,-2.0114,-2.014,-2.0169,-2.0166,-2.0166,-2.0157,-2.0046,-2.0019,-2.0101,-2.01,-2.0099,-2.0099,-2.0099,-2.0049,-2.0021,-2.009,-2.0117,-2.0164,-2.0209,-2.0209,-2.0262,-2.0284,-2.0311,-2.0295,-2.0213,-2.0207,-2.0198,-2.0176,-2.0294,-2.0294,-2.0294,-2.0294,-2.0116,-2.0113,-2.0184,-2.0226,-2.0267,-2.0274,-2.0353,-2.0375,-2.0392,-2.0406,-2.0389,-2.0359,-2.035,-2.0349,-2.0337,-2.0316,-2.0467,-2.0467,-2.0467,-2.0195,-2.0195,-2.0262,-2.0278,-2.0315,-2.0347,-2.0421,-2.047,-2.0484,-2.0474,-2.0417,-2.041,-2.0361,-2.0345,-2.0335,-2.0316,-2.0278,0,0]},{"header":{"parameterUnit":"m.s-1","parameterCategory":1,"la1":30.2992,"la2":30.254,"lo1":-89.0895,"lo2":-89.0443,"dy":0.0025,"dx":0.0025,"nx":19,"ny":19,"refTime":"2026-04-07T03:00:00:Z","depth":0,"parameterNumber":3,"parameterNumberName":"V-component_of_WINDS"},"data":[0,0,0,-6.6864,-6.6867,-6.6978,-6.6978,-6.7133,-6.7134,0,0,0,0,0,0,0,0,0,0,0,-6.6841,-6.6843,-6.6864,-6.6867,-6.6978,-6.6978,-6.7133,-6.7134,0,0,0,0,0,0,0,0,0,0,0,-6.6841,-6.6842,-6.6844,-6.6867,-6.6978,-6.6978,-6.7132,-6.7043,0,0,0,0,0,0,0,0,0,0,-6.6933,-6.6923,-6.6842,-6.6844,-6.6868,-6.6978,-6.6979,-6.7039,-6.7049,-6.7089,0,-6.7129,0,-6.7135,-6.7146,-6.7146,0,0,0,-6.6859,-6.6914,-6.6935,-6.6845,-6.6869,-6.6978,-6.6926,-6.7044,-6.7056,-6.7102,-6.7131,-6.7137,-6.7137,-6.7147,-6.7148,-6.7413,-6.7415,0,0,-6.6852,-6.6866,-6.6928,-6.6943,-6.693,-6.6922,-6.6929,-6.7051,-6.7083,-6.7132,-6.714,-6.714,-6.7148,-6.7149,-6.7411,-6.7413,0,0,0,-6.684,-6.6862,-6.688,-6.6938,-6.6957,-6.6925,-6.6934,-6.7077,-6.7082,-6.7142,-6.7142,-6.7149,-6.7151,-6.741,-6.7412,-6.7508,0,0,0,-6.6836,-6.6855,-6.6878,-6.6887,-6.6955,-6.7019,-6.6957,-6.7073,-6.7087,-6.7141,-6.7149,-6.7153,-6.7408,-6.7411,-6.7502,-6.7551,0,0,0,-6.683,-6.6854,-6.6874,-6.6888,-6.6936,-6.7017,-6.7028,-6.7076,-6.7087,-6.7147,-6.7153,-6.7407,-6.741,-6.7496,-6.7541,-6.7626,0,0,0,-6.6827,-6.6956,-6.6876,-6.7019,-6.6936,-6.7076,-6.7027,-6.713,-6.7192,-6.715,-6.7408,-6.7412,-6.7494,-6.7535,-6.762,-6.77,-6.7735,0,0,-6.6997,-6.6977,-6.706,-6.6992,-6.7151,-6.7058,-6.7229,-6.7272,-6.7263,-6.7363,-6.7369,-6.7504,-6.7541,-6.7624,-6.7923,-6.7951,0,0,0,-6.7119,-6.7179,-6.7218,-6.728,-6.7317,-6.7352,-6.7368,-6.7383,-6.7468,-6.7318,-6.7556,-6.7578,-6.7626,-6.7664,-6.7687,-6.7728,-6.743,-6.7429,-6.7429,-6.7378,-6.7363,-6.75,-6.7498,-6.7558,-6.7573,-6.762,-6.7643,-6.7607,-6.7664,-6.7694,-6.7878,-6.7922,-6.794,-6.7983,-6.7734,-6.7735,-6.7735,-6.7735,-6.7626,-6.7709,-6.7662,-6.7778,-6.776,-6.7855,-6.7875,-6.7847,-6.7932,-6.7853,-6.7895,-6.7812,-6.7971,-6.8007,-6.7742,-6.7741,-6.774,-6.774,-6.7739,-6.7795,-6.7832,-6.7851,-6.7939,-6.8008,-6.8,-6.8086,-6.8065,-6.8046,-6.8088,-6.8117,-6.8115,-6.8112,-6.8103,-6.8104,-6.8104,-6.8105,-6.8105,-6.8106,-6.7963,-6.7981,-6.8057,-6.8109,-6.8147,-6.8193,-6.8209,-6.8244,-6.8278,-6.8256,-6.8256,-6.8215,-6.799,-6.7934,-6.8116,-6.8114,-6.8113,-6.8112,-6.8111,-6.8221,-6.816,-6.8278,-6.8316,-6.8375,-6.8445,-6.8418,-6.8491,-6.8517,-6.856,-6.851,-6.8347,-6.8323,-6.8305,-6.8258,-6.8513,-6.8513,-6.8513,-6.8513,-6.8364,-6.8351,-6.8468,-6.853,-6.8587,-6.8576,-6.8707,-6.8721,-6.8725,-6.8739,-6.8699,-6.8636,-6.8617,-6.8605,-6.8579,-6.8536,-6.8856,-6.8856,-6.8856,-6.8522,-6.8514,-6.8632,-6.8638,-6.8683,-6.8721,-6.8844,-6.8914,-6.8906,-6.887,-6.875,-6.8736,-6.8633,-6.8601,-6.8562,-6.8523,-6.8443,0,0]}]]